Kezdőlap
METAR-TAF:

METAR-TAF

Repülőterek :

Ames, Iowa, Amerikai Egyesült Államok

földrajzi szélesség: 41-59-26N, földrajzi hosszúság: 093-37-08W, magasság: 288 m

Jelenlegi meteorológiai megfigyelések

A jelentés 50 perccel ezelõtt készült, 12:53 UTC
Északi szél 4 kt
Hőmérséklet -2°C
Páratartalom 86%
Légköri nyomás 1027 hPa
Látótávolság: 16.1 km
Borult 10000 lábon

METAR: KAMW 041253Z AUTO 36004KT 10SM OVC100 M02/M04 A3033 RMK AO2 SLP277 T10171039

Idő: 07:43 (13:43 UTC)


TAF: hiányzik

Meteorológiai megfigyelések és előrejelzések több, mint 4000 repülőtéren (METAR és TAF jelentéseket).

A térképen piros és sárga pontok jelzik az elérhető meteorológiai állomásokat.

Mozgassa az egeret a pont fölött, hogy megjelenjen az állomás neve.

Azután kattintson az időjárási megfigyelések és előrejelzések megtekintéséhez.

A térkép megváltoztatása: kattintson a fekete keresztel jelölt zöld gombra ráközelítéshez, a vonallal jelölt zöld gombra távolításhoz, vagy a zöld nyilakra a szomszédos térképek eléréséhez.


METAR-TAF: